THOR ABLESTAR DEB, 150

Orbit data source: Space-Track

THOR ABLESTAR DEB, 150 is space debris in LEO originally from a launch on Thu, 29 Jun 1961 UTC launched from the Air Force Eastern Test Range (AFETR). Debris objects in space refer to the collection of defunct objects orbiting the Earth. Examples of debris include non-operational satellites, rocket bodies, and fragments generated from explosions, collisions, or faulty payload assembly.

Loading next visibility...
Identifier
150, 1961-015AL
Orbit
LEO
Last TLE update
3 hours ago
Origin
Manufacturer
Unknown
Mission
Spacecraft
Bus & Motor
Unknown
Mass
Unknown
Launch date (UTC)
1961-06-29 (64 years ago)
Launch vehicle
Unknown
Launch site
Air Force Eastern Test Range (AFETR)
Object type
Payload
Rocket body
Debris
Shape & HBR
Unknown
Radar Cross Section
Medium (>0.1 m² and <1 m²)

Expand to show TLE details & history

TLE from 3 hours ago
0 THOR ABLESTAR DEB
1   150U 61015AL  25199.85916789  .00000108  00000-0  16814-3 0  9990
2   150  66.2487   5.2307 0050958  89.9438 270.7472 13.83481641 62844
Epoch: 2025-07-18T20:37Z
TLE epoch observation values (Epoch: 2025-07-18T20:37:12.105Z)
Latitude
-0.00001°
Longitude
119.02567°
Altitude
953.293 km
Speed
7.376 km/s
True Right ascension
00h 20m 55s
True Declination
0° 00' 00"
Sunlit
Object was in daylight at epoch
Visualization orbit readout
Latitude
-63.31028°
Longitude
58.15784°
Altitude
1,011.315 km
Speed
7.327 km/s
Apparent Right ascension
22h 50m 52s
Apparent Declination
-56° 29' 33"
Sunlit
Object is in full shadow
Visualization observer readout
Local Sidereal Time
12:30:34
Azimuth
143.835° SSE
Elevation
-66.781°
Doppler factor
1
Orbital elements
Apogee altitude
987.369 km
Perigee altitude
912.683 km
Semi-major axis
7,328.163 km
Eccentricity
0.0051
Inclination
66.2487°
RAAN
5.2307°
Arg. of periapsis
89.9438°
True anomaly
270.16328°
Mean anomaly
270.7472°
Eccentric anomaly
270.45524°
Mean motion
3.4598 °/min
Orbital period
104.05 mins
BSTAR
0.00016814
Loading maneuver chart data...
Loading SW <> Apogee altitude chart data...
|